Regional Weather Roundup
Issued by NWS

Home | Current Version | Previous Version | Text Only | Print | Product List | Glossary On
Versions: 1 2 3 4 5 6 7 8 9 10 11 12 13 14 15 16 17 18 19 20 21 22 23 24 25 26 27 28 29 30 31 32 33 34 35 36 37 38 39 40 41 42 43 44 45 46 47 48 49 50
482
ASUS43 KLMK 221202
RWRKY
KENTUCKY REGIONAL WEATHER ROUNDUP
NATIONAL WEATHER SERVICE LOUISVILLE KY
800 AM EDT FRI SEP 22 2017

NOTE "FAIR" INDICATES FEW OR NO CLOUDS BELOW 12,000 FEET
WITH NO SIGNIFICANT WEATHER AND/OR OBSTRUCTIONS TO VISIBILITY.

KYZ001>023-026-027-061>063-070>075-221300-
WESTERN AND SOUTH CENTRAL KENTUCKY

CITY           SKY/WX    TMP DP  RH WIND       PRES   REMARKS
PADUCAH        CLEAR     68  66  93 CALM      30.06R FOG
HENDERSON      CLEAR     66  66 100 CALM      30.08R FOG
OWENSBORO      CLEAR     69  68  96 VRB3      30.08S FOG
HOPKINSVILLE   NOT AVBL
BOWLING GREEN  FOG       67  67 100 CALM      30.09R VSB<1/4
GLASGOW        PTCLDY   N/A N/A N/A CALM      30.10R FOG
$$

KYZ024-025-028>034-038-045-046-053-221300-
NORTH CENTRAL KENTUCKY

CITY           SKY/WX    TMP DP  RH WIND       PRES   REMARKS
LOUISVILLE/SDF PTCLDY    73  70  90 CALM      30.10R FOG
LOUISVILLE/LOU CLEAR     68  68 100 CALM      30.11R FOG
FORT KNOX      NOT AVBL
$$

KYZ035>037-039>044-047>052-055>060-089>105-221300-
NORTHEAST KENTUCKY

CITY           SKY/WX    TMP DP  RH WIND       PRES   REMARKS
LEXINGTON      CLEAR     65  62  90 CALM      30.13R FOG
COVINGTON      CLEAR     67  67 100 CALM      30.12R
FRANKFORT      FOG       65  62  90 CALM      30.11R VSB 1
$$

KYZ054-064>069-076>088-106>120-221300-
SOUTHEAST KENTUCKY

CITY           SKY/WX    TMP DP  RH WIND       PRES   REMARKS
JACKSON        CLEAR     67  65  93 CALM      30.14R FOG
LONDON         CLEAR     64  62  93 CALM      30.13R
SOMERSET       NOT AVBL
MIDDLESBORO    CLOUDY    63  63 100 CALM      30.14S FOG
MONTICELLO     FOG       60  60 100 N12       30.14R VSB 1/4
$$





USA.gov is the U.S. government's official web portal to all federal, state and local government web resources and services.